TimeMDT,TemperatureF,Dew PointF,Humidity,Sea Level PressureIn,VisibilityMPH,Wind Direction,Wind SpeedMPH,Gust SpeedMPH,PrecipitationIn,Events,Conditions,WindDirDegrees,DateUTC
12:54 AM,64.0,48.9,58,29.73,10.0,NE,24.2,28.8,N/A,,Clear,50,2013-06-24 06:54:00
1:54 AM,62.1,46.0,56,29.75,10.0,NNW,11.5,-,N/A,,Clear,330,2013-06-24 07:54:00
2:54 AM,60.1,43.0,53,29.74,10.0,NNW,9.2,-,N/A,,Partly Cloudy,340,2013-06-24 08:54:00
3:54 AM,61.0,44.1,54,29.76,10.0,NW,5.8,-,N/A,,Partly Cloudy,320,2013-06-24 09:54:00
4:54 AM,57.0,43.0,59,29.78,10.0,North,5.8,-,N/A,,Partly Cloudy,10,2013-06-24 10:54:00
5:54 AM,61.0,43.0,52,29.79,9.0,Calm,Calm,-,N/A,,Mostly Cloudy,0,2013-06-24 11:54:00
6:54 AM,63.0,44.1,50,29.81,10.0,SSW,5.8,-,N/A,,Mostly Cloudy,200,2013-06-24 12:54:00
7:54 AM,64.0,44.1,48,29.80,10.0,South,8.1,-,N/A,,Mostly Cloudy,190,2013-06-24 13:54:00
8:54 AM,66.0,45.0,47,29.80,10.0,South,12.7,-,N/A,,Mostly Cloudy,180,2013-06-24 14:54:00
9:54 AM,69.1,46.0,44,29.78,10.0,South,17.3,-,N/A,,Mostly Cloudy,170,2013-06-24 15:54:00
10:54 AM,70.0,46.9,44,29.77,10.0,SSE,20.7,26.5,N/A,,Mostly Cloudy,160,2013-06-24 16:54:00
11:54 AM,77.0,46.0,33,29.73,10.0,South,20.7,27.6,N/A,,Mostly Cloudy,180,2013-06-24 17:54:00
12:54 PM,82.0,32.0,16,29.70,10.0,South,21.9,33.4,N/A,,Mostly Cloudy,190,2013-06-24 18:54:00
1:54 PM,82.0,30.0,15,29.68,10.0,South,23.0,34.5,N/A,,Mostly Cloudy,170,2013-06-24 19:54:00
2:54 PM,84.9,21.9,10,29.64,10.0,South,17.3,31.1,N/A,,Scattered Clouds,170,2013-06-24 20:54:00
3:54 PM,86.0,19.0,8,29.62,10.0,South,20.7,34.5,N/A,,Scattered Clouds,190,2013-06-24 21:54:00
4:54 PM,88.0,17.1,7,29.61,10.0,South,21.9,27.6,N/A,,Scattered Clouds,180,2013-06-24 22:54:00
5:54 PM,86.0,8.1,5,29.59,8.0,South,20.7,-,N/A,,Scattered Clouds,190,2013-06-24 23:54:00
6:54 PM,84.9,10.9,6,29.59,10.0,South,13.8,-,N/A,,Scattered Clouds,190,2013-06-25 00:54:00
7:54 PM,82.9,8.1,6,29.59,8.0,SSW,17.3,26.5,N/A,,Mostly Cloudy,210,2013-06-25 01:54:00
8:54 PM,78.8,6.8,6,29.61,5.0,SW,12.7,-,N/A,,Haze,230,2013-06-25 02:54:00
9:54 PM,75.9,8.1,7,29.63,4.0,South,9.2,-,N/A,,Haze,190,2013-06-25 03:54:00
10:34 PM,78.8,8.6,7,29.92,6.0,Variable,5.8,-,N/A,,Haze,0,2013-06-25 04:34:00
10:54 PM,78.1,12.0,8,29.63,6.0,NNE,3.5,-,N/A,,Haze,30,2013-06-25 04:54:00
11:54 PM,77.0,15.1,10,29.61,7.0,WNW,10.4,20.7,N/A,,Overcast,300,2013-06-25 05:54:00